STARLINK-11533, 62836

Orbit data source: Space-Track

STARLINK-11533, 62836 is a payload satellite owned by SpaceX/Seattle (US) in LEO that was launched on Mon, 27 Jan 2025 UTC via an FALCON 9 launch vehicle from the Air Force Eastern Test Range (AFETR). Payload-class satellites include a variety of spacecraft equipped with specific instruments for various scientific and technological missions. These include communications satellites like Starlink; space stations such as the ISS; scientific satellites like the Hubble; Earth observation satellites from companies like Planet Labs, Umbra, and HawkEye 360; GPS; miniature CubeSats for education and research; and military/defense satellites.

Loading next visibility...
Identifier
62836, 2025-019H
Orbit
LEO
Last TLE update
8 hours ago
Origin
Manufacturer
SpaceX/Seattle
Mission
Operational Commercial Communications
Bus & Motor
STARLINK V2M, Unknown motor
Mass
730 kg wet, ~700 kg dry
Launch date (UTC)
2025-01-27 (3 months ago)
Launch vehicle
FALCON 9
Launch site
Air Force Eastern Test Range (AFETR)
Object type
Payload
Rocket body
Debris
Shape & HBR
Box + 2 Pan, 29 m
Radar Cross Section
36.964 m², Large (>1 m²)

Expand to show TLE details & history

TLE from 8 hours ago
0 STARLINK-11533
1 62836U 25019H   25128.89627233  .00000321  00000-0  60057-5 0  9999
2 62836  42.9999 343.2672 0002285 274.4521  85.6086 15.70831808 15941
Epoch: 2025-05-08T21:30Z
Definitive object data (Epoch: 2025-05-08T21:30:37.929Z)
Latitude
0.00002°
Longitude
153.64899°
Altitude
356.172 km
Speed
7.697 km/s
True Right ascension
22h 53m 04s
True Declination
0° 00' 00"
Sunlit
Object was in daylight at TLE epoch
Visualization TLE readout
Latitude
38.82484°
Longitude
-87.49657°
Altitude
360.182 km
Speed
7.698 km/s
Apparent Right ascension
04h 23m 30s
Apparent Declination
0° 56' 36"
Sunlit
Object is in daylight
Visualization observer readout
Local Sidereal Time
13:46:00
Azimuth
308.723° NW
Elevation
-35.609°
Doppler factor
1
Orbital elements
Apogee altitude
360.039 km
Perigee altitude
356.961 km
Semi-major axis
6,736.637 km
Eccentricity
0.0002285
Inclination
42.9999°
RAAN
343.2672°
Arg. of periapsis
274.4521°
True anomaly
85.63471°
Mean anomaly
85.6086°
Eccentric anomaly
85.62165°
Mean motion
3.92535 °/min
BSTAR
0.0000060057
Orbital period
91.71 mins
Loading maneuver chart data...
Loading SW <> Apogee altitude chart data...
Loading historical data...
Loading historical data...
Loading historical data...
Loading historical data...
Loading historical data...
Loading historical data...
Loading historical data...

STARLINK-11533 Visibility forecast

Observer location: undefined°, undefined°

Span
Click to sort rows by Start time (UTC) header in descending order
Start Az.
Max El. time (UTC)
Max El. Az.
Max El.
End time (UTC)
End Az.
5 mins2025-05-09 17:33:18.619Z217.985° SW2025-05-09 17:36:18.619Z136.773° SSE27.934°2025-05-09 17:38:18.619Z88.682° E
4 mins2025-05-09 19:10:18.619Z273.438° WNW2025-05-09 19:12:18.619Z18.684° NNE39.177°2025-05-09 19:14:18.619Z66.294° ENE
4 mins2025-05-09 22:23:18.619Z275.325° WNW2025-05-09 22:24:18.619Z235.153° WSW41.144°2025-05-09 22:27:18.619Z120.336° SE
|